Location: Utrecht
(52.0907°N, 5.1214°E)
Time: 13:09:30
(UTC+02:00)

SPROUT - Pass Details

Date: 09 July 2022
Orbit: 588 x 598 km, 97.9° (Epoch: 18 August)

Event Time Altitude Azimuth Distance (km) Brightness Sun altitude
Exits shadow 01:58:42 21° 146° (SE) 1,330 ? -15.5°
Maximum altitude 02:01:19 62° 72° (ENE) 673 ? -15.4°
Drops below altitude 10° 02:05:28 10° 352° (N) 1,935 ? -15.4°
Sets 02:07:39 0° 349° (NNW) 2,844 ? -15.4°
